TimeMST,TemperatureF,Dew PointF,Humidity,Sea Level PressureIn,VisibilityMPH,Wind Direction,Wind SpeedMPH,Gust SpeedMPH,PrecipitationIn,Events,Conditions,WindDirDegrees,DateUTC
12:15 AM,89.6,35.6,15,29.73,10.0,SSE,16.1,-,N/A,,Clear,150,2013-06-25 07:15:00
12:35 AM,89.6,35.6,15,29.73,10.0,SSE,15.0,-,N/A,,Clear,150,2013-06-25 07:35:00
12:55 AM,87.8,37.4,17,29.74,10.0,SSE,15.0,-,N/A,,Clear,150,2013-06-25 07:55:00
1:15 AM,87.8,37.4,17,29.74,10.0,SSE,12.7,-,N/A,,Clear,160,2013-06-25 08:15:00
1:35 AM,86.0,35.6,17,29.75,10.0,SW,5.8,-,N/A,,Clear,220,2013-06-25 08:35:00
1:55 AM,82.4,37.4,20,29.76,10.0,SSW,4.6,-,N/A,,Clear,210,2013-06-25 08:55:00
2:15 AM,82.4,37.4,20,29.76,10.0,SSW,8.1,-,N/A,,Clear,200,2013-06-25 09:15:00
2:35 AM,82.4,37.4,20,29.76,10.0,SSW,6.9,-,N/A,,Clear,210,2013-06-25 09:35:00
2:55 AM,80.6,39.2,23,29.77,10.0,SSW,5.8,-,N/A,,Clear,210,2013-06-25 09:55:00
3:15 AM,80.6,39.2,23,29.77,10.0,SW,8.1,-,N/A,,Clear,230,2013-06-25 10:15:00
3:35 AM,80.6,41.0,24,29.77,10.0,SSW,6.9,-,N/A,,Clear,210,2013-06-25 10:35:00
3:55 AM,78.8,42.8,28,29.78,10.0,SW,5.8,-,N/A,,Clear,220,2013-06-25 10:55:00
4:15 AM,77.0,44.6,32,29.79,10.0,SSW,5.8,-,N/A,,Clear,200,2013-06-25 11:15:00
4:35 AM,77.0,44.6,32,29.80,10.0,SSW,5.8,-,N/A,,Clear,210,2013-06-25 11:35:00
4:55 AM,77.0,44.6,32,29.80,10.0,SSW,5.8,-,N/A,,Clear,200,2013-06-25 11:55:00
5:15 AM,77.0,44.6,32,29.81,10.0,SSE,4.6,-,N/A,,Clear,160,2013-06-25 12:15:00
5:35 AM,77.0,44.6,32,29.81,10.0,South,6.9,-,N/A,,Clear,180,2013-06-25 12:35:00
5:55 AM,77.0,44.6,32,29.82,10.0,SE,6.9,-,N/A,,Clear,140,2013-06-25 12:55:00
6:15 AM,77.0,44.6,32,29.83,10.0,SE,5.8,-,N/A,,Clear,140,2013-06-25 13:15:00
6:35 AM,80.6,46.4,30,29.84,10.0,South,3.5,-,N/A,,Clear,190,2013-06-25 13:35:00
6:55 AM,80.6,46.4,30,29.84,10.0,Calm,Calm,-,N/A,,Clear,0,2013-06-25 13:55:00
7:15 AM,82.4,46.4,28,29.85,10.0,Calm,Calm,-,N/A,,Clear,0,2013-06-25 14:15:00
7:35 AM,82.4,46.4,28,29.86,10.0,South,4.6,-,N/A,,Clear,180,2013-06-25 14:35:00
7:55 AM,82.4,48.2,30,29.86,10.0,SW,5.8,-,N/A,,Clear,220,2013-06-25 14:55:00
8:15 AM,84.2,48.2,29,29.86,10.0,South,6.9,-,N/A,,Clear,170,2013-06-25 15:15:00
8:35 AM,84.2,48.2,29,29.86,10.0,SW,8.1,-,N/A,,Clear,230,2013-06-25 15:35:00
8:55 AM,86.0,48.2,27,29.86,10.0,SW,8.1,-,N/A,,Clear,230,2013-06-25 15:55:00
9:15 AM,86.0,48.2,27,29.87,10.0,SSW,8.1,-,N/A,,Clear,210,2013-06-25 16:15:00
9:35 AM,87.8,48.2,25,29.87,10.0,SW,11.5,-,N/A,,Clear,220,2013-06-25 16:35:00
9:55 AM,89.6,48.2,24,29.87,10.0,South,9.2,-,N/A,,Clear,180,2013-06-25 16:55:00
10:15 AM,89.6,48.2,24,29.87,10.0,South,11.5,17.3,N/A,,Clear,180,2013-06-25 17:15:00
10:35 AM,91.4,48.2,23,29.86,10.0,SSW,15.0,18.4,N/A,,Clear,200,2013-06-25 17:35:00
10:55 AM,93.2,46.4,20,29.86,10.0,SSW,13.8,21.9,N/A,,Clear,210,2013-06-25 17:55:00
11:15 AM,93.2,46.4,20,29.85,10.0,SW,15.0,-,N/A,,Clear,220,2013-06-25 18:15:00
11:35 AM,93.2,46.4,20,29.85,10.0,SW,12.7,-,N/A,,Clear,230,2013-06-25 18:35:00
11:55 AM,95.0,42.8,16,29.85,10.0,SW,15.0,21.9,N/A,,Clear,220,2013-06-25 18:55:00
12:15 PM,95.0,41.0,15,29.85,10.0,SW,13.8,18.4,N/A,,Clear,220,2013-06-25 19:15:00
12:35 PM,95.0,41.0,15,29.85,10.0,SSW,10.4,18.4,N/A,,Clear,200,2013-06-25 19:35:00
12:55 PM,98.6,39.2,13,29.83,10.0,SSW,18.4,-,N/A,,Clear,210,2013-06-25 19:55:00
1:15 PM,96.8,41.0,15,29.84,10.0,South,5.8,19.6,N/A,,Clear,190,2013-06-25 20:15:00
1:35 PM,98.6,41.0,14,29.83,10.0,South,16.1,20.7,N/A,,Clear,190,2013-06-25 20:35:00
1:55 PM,98.6,41.0,14,29.82,10.0,SSW,17.3,23.0,N/A,,Clear,200,2013-06-25 20:55:00
2:15 PM,98.6,39.2,13,29.82,10.0,SSW,12.7,19.6,N/A,,Clear,210,2013-06-25 21:15:00
2:35 PM,98.6,39.2,13,29.81,10.0,South,11.5,17.3,N/A,,Clear,170,2013-06-25 21:35:00
2:55 PM,100.4,37.4,11,29.81,10.0,SW,10.4,16.1,N/A,,Clear,220,2013-06-25 21:55:00
3:15 PM,100.4,39.2,12,29.79,10.0,SSW,9.2,18.4,N/A,,Clear,200,2013-06-25 22:15:00
3:35 PM,100.4,39.2,12,29.79,10.0,South,10.4,16.1,N/A,,Clear,180,2013-06-25 22:35:00
3:55 PM,100.4,39.2,12,29.78,10.0,South,15.0,20.7,N/A,,Clear,190,2013-06-25 22:55:00
4:15 PM,102.2,41.0,12,29.77,10.0,South,11.5,-,N/A,,Clear,170,2013-06-25 23:15:00
4:35 PM,100.4,41.0,13,29.77,10.0,SE,5.8,-,N/A,,Clear,130,2013-06-25 23:35:00
4:55 PM,100.4,42.8,14,29.76,10.0,SSE,10.4,-,N/A,,Clear,160,2013-06-25 23:55:00
5:15 PM,100.4,41.0,13,29.75,10.0,SSE,9.2,-,N/A,,Clear,150,2013-06-26 00:15:00
5:35 PM,102.2,41.0,12,29.75,10.0,South,10.4,23.0,N/A,,Clear,190,2013-06-26 00:35:00
5:55 PM,100.4,41.0,13,29.74,10.0,SSE,13.8,-,N/A,,Clear,160,2013-06-26 00:55:00
6:15 PM,100.4,41.0,13,29.74,10.0,South,11.5,19.6,N/A,,Clear,170,2013-06-26 01:15:00
6:35 PM,100.4,41.0,13,29.74,10.0,South,12.7,-,N/A,,Clear,180,2013-06-26 01:35:00
6:55 PM,100.4,39.2,12,29.74,10.0,South,13.8,19.6,N/A,,Clear,170,2013-06-26 01:55:00
7:15 PM,100.4,39.2,12,29.74,10.0,SSE,11.5,-,N/A,,Clear,150,2013-06-26 02:15:00
7:35 PM,100.4,39.2,12,29.74,10.0,South,13.8,-,N/A,,Clear,170,2013-06-26 02:35:00
7:55 PM,98.6,39.2,13,29.75,10.0,SSE,12.7,-,N/A,,Clear,160,2013-06-26 02:55:00
8:15 PM,98.6,39.2,13,29.75,10.0,SSE,11.5,-,N/A,,Clear,150,2013-06-26 03:15:00
8:35 PM,98.6,37.4,12,29.76,10.0,SSE,11.5,-,N/A,,Clear,150,2013-06-26 03:35:00
8:55 PM,98.6,37.4,12,29.76,10.0,SSE,10.4,-,N/A,,Clear,150,2013-06-26 03:55:00
9:15 PM,96.8,37.4,13,29.77,10.0,South,10.4,-,N/A,,Clear,170,2013-06-26 04:15:00
9:35 PM,95.0,39.2,14,29.78,10.0,SSW,3.5,-,N/A,,Clear,210,2013-06-26 04:35:00
9:55 PM,93.2,39.2,15,29.79,10.0,South,3.5,-,N/A,,Clear,190,2013-06-26 04:55:00
10:15 PM,93.2,39.2,15,29.79,10.0,SSW,4.6,-,N/A,,Clear,210,2013-06-26 05:15:00
10:35 PM,93.2,39.2,15,29.79,10.0,Calm,Calm,-,N/A,,Clear,0,2013-06-26 05:35:00
10:55 PM,91.4,39.2,16,29.79,10.0,SE,4.6,-,N/A,,Clear,130,2013-06-26 05:55:00
11:15 PM,91.4,39.2,16,29.80,10.0,Calm,Calm,-,N/A,,Clear,0,2013-06-26 06:15:00
11:35 PM,89.6,37.4,16,29.80,10.0,Calm,Calm,-,N/A,,Clear,0,2013-06-26 06:35:00
11:55 PM,87.8,39.2,18,29.80,10.0,Calm,Calm,-,N/A,,Clear,0,2013-06-26 06:55:00